| time (UTC) | temp C | wind direction | speed KPH | gust KPH | rain 1hr cm | rain 24hr cm | rain mn cm | humidity % | barometer mb |
| 20260504180545 | 22 | 225 | 12.9 | 20.9 | 0.00 | 0.00 | 0.00 | 51 | 1013.8 |
| 20260504175538 | 22 | 248 | 6.4 | 16.1 | 0.00 | 0.00 | 0.00 | 53 | 1014.0 |
| 20260504174537 | 22 | 225 | 9.7 | 20.9 | 0.00 | 0.00 | 0.00 | 52 | 1014.1 |
| 20260504173539 | 22 | 225 | 9.7 | 17.7 | 0.00 | 0.00 | 0.00 | 53 | 1014.2 |
| 20260504172540 | 22 | 248 | 11.3 | 17.7 | 0.00 | 0.00 | 0.00 | 55 | 1014.2 |
| 20260504171544 | 21 | 225 | 12.9 | 24.1 | 0.00 | 0.00 | 0.00 | 54 | 1014.4 |
| 20260504170553 | 21 | 225 | 12.9 | 22.5 | 0.00 | 0.00 | 0.00 | 54 | 1014.5 |
| 20260504150539 | 18 | 225 | 12.9 | 24.1 | 0.00 | 0.00 | 0.00 | 59 | 1015.5 |
| 20260504140545 | 17 | 248 | 3.2 | 12.9 | 0.00 | 0.00 | 0.00 | 60 | 1016.1 |
| 20260504130536 | 15 | 203 | 1.6 | 6.4 | 0.00 | 0.00 | 0.00 | 71 | 1016.4 |
| 20260504110539 | 9 | 0.0 | 0.0 | 0.00 | 0.00 | 0.00 | 92 | 1015.7 | |
| 20260504100548 | 9 | 0.0 | 0.0 | 0.00 | 0.00 | 0.00 | 92 | 1015.5 | |
| 20260504081542 | 9 | 0.0 | 0.0 | 0.00 | 0.00 | 0.00 | 91 | 1015.3 | |
| 20260504080546 | 10 | 0.0 | 0.0 | 0.00 | 0.00 | 0.00 | 91 | 1015.3 | |
| 20260504050544 | 11 | 0.0 | 1.6 | 0.00 | 0.00 | 0.00 | 87 | 1016.3 | |
| 20260504045534 | 11 | 0.0 | 1.6 | 0.00 | 0.00 | 0.00 | 86 | 1016.2 | |
| 20260504044537 | 11 | 315 | 1.6 | 3.2 | 0.00 | 0.00 | 0.00 | 85 | 1016.2 |
| 20260504043553 | 11 | 315 | 1.6 | 3.2 | 0.00 | 0.00 | 0.00 | 85 | 1016.2 |
| 20260504042537 | 11 | 0.0 | 1.6 | 0.00 | 0.00 | 0.00 | 84 | 1016.1 | |
| 20260504041540 | 11 | 0.0 | 1.6 | 0.00 | 0.00 | 0.00 | 83 | 1016.2 | |
| 20260504040547 | 11 | 338 | 1.6 | 3.2 | 0.00 | 0.00 | 0.00 | 81 | 1016.3 |
| 20260504035539 | 11 | 338 | 1.6 | 3.2 | 0.00 | 0.00 | 0.00 | 79 | 1016.5 |
| 20260504034543 | 11 | 0.0 | 1.6 | 0.00 | 0.00 | 0.00 | 79 | 1016.6 | |
| 20260504033534 | 11 | 315 | 1.6 | 3.2 | 0.00 | 0.00 | 0.00 | 80 | 1016.7 |
| 20260504032537 | 11 | 315 | 1.6 | 3.2 | 0.00 | 0.00 | 0.00 | 79 | 1016.8 |
| 20260504031538 | 12 | 0.0 | 1.6 | 0.00 | 0.00 | 0.00 | 78 | 1016.8 | |
| 20260504030539 | 12 | 338 | 1.6 | 3.2 | 0.00 | 0.00 | 0.00 | 77 | 1016.8 |
| 20260504025535 | 12 | 338 | 1.6 | 3.2 | 0.00 | 0.00 | 0.00 | 77 | 1016.7 |
| 20260504024550 | 12 | 0.0 | 1.6 | 0.00 | 0.00 | 0.00 | 76 | 1016.6 | |
| 20260504023552 | 12 | 0.0 | 1.6 | 0.00 | 0.00 | 0.00 | 76 | 1016.5 | |
| 20260504022538 | 12 | 0.0 | 3.2 | 0.00 | 0.00 | 0.00 | 74 | 1016.3 | |
| 20260504021536 | 12 | 338 | 1.6 | 4.8 | 0.00 | 0.00 | 0.00 | 73 | 1016.2 |
| 20260504020541 | 13 | 338 | 1.6 | 1.6 | 0.00 | 0.00 | 0.00 | 75 | 1016.0 |
| 20260504015542 | 13 | 0.0 | 3.2 | 0.00 | 0.00 | 0.00 | 74 | 1015.9 | |
| 20260504014534 | 13 | 0.0 | 0.0 | 0.00 | 0.00 | 0.00 | 74 | 1015.9 | |
| 20260504013538 | 14 | 0.0 | 3.2 | 0.00 | 0.00 | 0.00 | 74 | 1015.7 | |
| 20260504012536 | 15 | 0.0 | 1.6 | 0.00 | 0.00 | 0.00 | 71 | 1015.8 | |
| 20260504011537 | 15 | 0.0 | 3.2 | 0.00 | 0.00 | 0.00 | 70 | 1015.7 | |
| 20260504010539 | 15 | 0.0 | 1.6 | 0.00 | 0.00 | 0.00 | 68 | 1015.7 | |
| 20260504005535 | 16 | 0.0 | 1.6 | 0.00 | 0.00 | 0.00 | 65 | 1015.7 | |
| 20260504004541 | 16 | 0 | 1.6 | 3.2 | 0.00 | 0.00 | 0.00 | 63 | 1015.7 |
| 20260504003537 | 17 | 0 | 1.6 | 3.2 | 0.00 | 0.00 | 0.00 | 61 | 1015.6 |
| 20260504002534 | 17 | 315 | 1.6 | 3.2 | 0.00 | 0.00 | 0.00 | 57 | 1015.6 |
| 20260504001548 | 18 | 0.0 | 1.6 | 0.00 | 0.00 | 0.00 | 53 | 1015.5 | |
| 20260504000541 | 18 | 0.0 | 1.6 | 0.00 | 0.00 | 0.00 | 50 | 1015.6 | |
| 20260503235540 | 19 | 0.0 | 3.2 | 0.00 | 0.00 | 0.00 | 48 | 1015.6 | |
| 20260503234545 | 20 | 315 | 3.2 | 6.4 | 0.00 | 0.00 | 0.00 | 44 | 1015.6 |
| 20260503233540 | 20 | 315 | 3.2 | 6.4 | 0.00 | 0.00 | 0.00 | 44 | 1015.6 |
| 20260503232544 | 20 | 315 | 1.6 | 4.8 | 0.00 | 0.00 | 0.00 | 43 | 1015.6 |
| 20260503231538 | 20 | 315 | 3.2 | 8.0 | 0.00 | 0.00 | 0.00 | 43 | 1015.6 |
| 20260503230533 | 19 | 315 | 4.8 | 16.1 | 0.00 | 0.00 | 0.00 | 43 | 1015.6 |
| 20260503225538 | 19 | 315 | 3.2 | 6.4 | 0.00 | 0.00 | 0.00 | 42 | 1015.7 |
| 20260503224541 | 20 | 338 | 3.2 | 8.0 | 0.00 | 0.00 | 0.00 | 46 | 1015.8 |
| 20260503223543 | 20 | 315 | 4.8 | 14.5 | 0.00 | 0.00 | 0.00 | 40 | 1015.7 |
| 20260503222539 | 20 | 338 | 3.2 | 6.4 | 0.00 | 0.00 | 0.00 | 42 | 1015.9 |
| 20260503221535 | 20 | 293 | 3.2 | 8.0 | 0.00 | 0.00 | 0.00 | 40 | 1016.0 |
| 20260503220537 | 20 | 338 | 3.2 | 9.7 | 0.00 | 0.00 | 0.00 | 41 | 1016.0 |
| 20260503215535 | 20 | 315 | 4.8 | 12.9 | 0.00 | 0.00 | 0.00 | 39 | 1016.1 |
| 20260503214537 | 20 | 315 | 4.8 | 12.9 | 0.00 | 0.00 | 0.00 | 40 | 1016.2 |
| 20260503213541 | 20 | 225 | 4.8 | 12.9 | 0.00 | 0.00 | 0.00 | 42 | 1016.2 |
| 20260503212537 | 20 | 293 | 3.2 | 12.9 | 0.00 | 0.00 | 0.00 | 39 | 1016.4 |
| 20260503211535 | 20 | 315 | 3.2 | 9.7 | 0.00 | 0.00 | 0.00 | 41 | 1016.4 |
| 20260503210543 | 20 | 315 | 4.8 | 12.9 | 0.00 | 0.00 | 0.00 | 41 | 1016.6 |
| 20260503205541 | 20 | 315 | 3.2 | 9.7 | 0.00 | 0.00 | 0.00 | 40 | 1016.7 |
| 20260503204550 | 19 | 315 | 6.4 | 12.9 | 0.00 | 0.00 | 0.00 | 42 | 1016.9 |
| 20260503203549 | 18 | 248 | 4.8 | 11.3 | 0.00 | 0.00 | 0.00 | 44 | 1017.0 |
| 20260503202549 | 18 | 225 | 11.3 | 17.7 | 0.00 | 0.00 | 0.00 | 45 | 1017.1 |
| 20260503201538 | 18 | 225 | 6.4 | 14.5 | 0.00 | 0.00 | 0.00 | 48 | 1017.3 |
| 20260503200537 | 18 | 248 | 4.8 | 12.9 | 0.00 | 0.00 | 0.00 | 47 | 1017.4 |
| 20260503195542 | 18 | 225 | 9.7 | 16.1 | 0.00 | 0.00 | 0.00 | 49 | 1017.6 |
| 20260503194540 | 18 | 248 | 8.0 | 19.3 | 0.00 | 0.00 | 0.00 | 49 | 1017.9 |
| 20260503193537 | 18 | 248 | 6.4 | 17.7 | 0.00 | 0.00 | 0.00 | 50 | 1018.1 |
| 20260503192539 | 18 | 248 | 6.4 | 17.7 | 0.00 | 0.00 | 0.00 | 53 | 1018.2 |
| 20260503191541 | 17 | 225 | 11.3 | 17.7 | 0.00 | 0.00 | 0.00 | 51 | 1018.6 |
| 20260503190535 | 17 | 225 | 14.5 | 19.3 | 0.00 | 0.00 | 0.00 | 49 | 1018.8 |
| 20260503185540 | 17 | 225 | 4.8 | 8.0 | 0.00 | 0.00 | 0.00 | 46 | 1018.9 |
| 20260503184535 | 17 | 225 | 4.8 | 11.3 | 0.00 | 0.00 | 0.00 | 47 | 1019.0 |
| 20260503183536 | 16 | 225 | 9.7 | 16.1 | 0.00 | 0.00 | 0.00 | 48 | 1019.1 |
| 20260503182538 | 17 | 248 | 4.8 | 16.1 | 0.00 | 0.00 | 0.00 | 47 | 1019.2 |
| 20260503181536 | 17 | 225 | 4.8 | 16.1 | 0.00 | 0.00 | 0.00 | 52 | 1019.2 |